Scottsbluff, NE

4:53 AM MST on November 14, 2019 (GMT -0700)
Heilig

Weather History for KBFF - September, 2019

Change the Weather History Date:

Wednesday, September 18, 2019

  Actual Average Record
Temperature  
Mean Temperature 60 °F -  
Max Temperature 79 °F 77 °F 98 °F (1995)
Min Temperature 42 °F 44 °F 30 °F (1906)
Degree Days  
Heating Degree Days 4    
Growing Degree Days 10 (Base 50)    
Moisture  
Dew Point 41 °F    
Average Humidity 50    
Maximum Humidity 89    
Minimum Humidity 17    
Precipitation  
Precipitation 0.00 in - - ()
Sea Level Pressure  
Sea Level Pressure 29.94 in    
Wind  
Wind Speed 6 mph (East)    
Max Wind Speed 15 mph    
Max Gust Speed -    
Visibility 10 miles    
Events      
Averages and records for this station are not official NWS values.
T = Trace of Precipitation, MM = Missing Value Source: NWS Daily Summary

Daily Weather History Graph

Daily Weather History Graph

Search for Another Location

Airport or City:

Astronomy

Sep. 18, 2019 Rise Set
Actual Time 6:37 AM MDT 6:58 PM MDT
Civil Twilight 6:09 AM MDT 7:26 PM MDT
Nautical Twilight 5:36 AM MDT 7:59 PM MDT
Astronomical Twilight 5:03 AM MDT 8:33 PM MDT
Moon 9:30 PM MDT (9/18) 10:46 AM MDT (9/18)
Length of Visible Light 13h 17m
Length of Day
12h 21m
Waning Gibbous, 82% of the Moon is Illuminated
Sep 18
Waning Gibbous
Sep 21
Last Quarter
Sep 28
New
Oct 5
First Quarter
Oct 13
Full

Hourly Weather History & Observations

Time (MDT) Temp. Windchill Dew Point Humidity Pressure Visibility Wind Dir Wind Speed Gust Speed Precip Events Conditions
12:53 AM 55.9 °F - 41.0 °F 57% 29.90 in 10.0 mi WNW 8.1 mph - N/A   Clear
1:53 AM 52.0 °F - 37.9 °F 59% 29.90 in 10.0 mi WNW 8.1 mph - N/A   Clear
2:53 AM 50.0 °F - 37.9 °F 63% 29.90 in 10.0 mi NW 6.9 mph - N/A   Clear
3:53 AM 46.0 °F 44.8 °F 37.9 °F 73% 29.92 in 10.0 mi ESE 3.5 mph - N/A   Clear
4:53 AM 45.0 °F 42.6 °F 37.9 °F 76% 29.96 in 10.0 mi ENE 4.6 mph - N/A   Clear
5:53 AM 46.9 °F - 39.0 °F 74% 29.96 in 10.0 mi Calm Calm - N/A   Clear
6:53 AM 42.1 °F - 39.0 °F 89% 30.00 in 10.0 mi Calm Calm - N/A   Clear
7:53 AM 51.1 °F - 41.0 °F 68% 30.01 in 10.0 mi Calm Calm - N/A   Clear
8:53 AM 59.0 °F - 39.0 °F 48% 29.99 in 10.0 mi North 4.6 mph - N/A   Clear
9:53 AM 63.0 °F - 36.0 °F 37% 30.00 in 10.0 mi Calm Calm - N/A   Clear
10:53 AM 68.0 °F - 36.0 °F 31% 30.00 in 10.0 mi Calm Calm - N/A   Clear
11:53 AM 71.1 °F - 36.0 °F 28% 29.99 in 10.0 mi SSE 8.1 mph - N/A   Clear
12:53 PM 73.0 °F - 33.1 °F 23% 29.96 in 10.0 mi South 6.9 mph - N/A   Clear
1:53 PM 75.9 °F - 35.1 °F 23% 29.94 in 10.0 mi SE 9.2 mph - N/A   Clear
2:53 PM 78.1 °F - 35.1 °F 21% 29.92 in 10.0 mi ESE 11.5 mph - N/A   Clear
3:53 PM 78.1 °F - 39.0 °F 25% 29.91 in 10.0 mi East 13.8 mph - N/A   Clear
4:53 PM 77.0 °F - 43.0 °F 30% 29.91 in 10.0 mi East 15.0 mph - N/A   Clear
5:53 PM 75.9 °F - 46.0 °F 35% 29.92 in 10.0 mi East 10.4 mph - N/A   Clear
7:53 PM 64.0 °F - 48.0 °F 56% 29.94 in 10.0 mi ESE 8.1 mph - N/A   Clear
8:53 PM 63.0 °F - 48.0 °F 58% 29.93 in 10.0 mi ESE 9.2 mph - N/A   Clear
9:53 PM 60.1 °F - 48.0 °F 64% 29.93 in 10.0 mi ESE 9.2 mph - N/A   Clear
10:53 PM 59.0 °F - 48.0 °F 67% 29.92 in 10.0 mi East 6.9 mph - N/A   Clear
11:53 PM 57.0 °F - 48.9 °F 74% 29.91 in 10.0 mi ENE 6.9 mph - N/A   Clear